"2009-12-03 00:00:00",1469086,3.336,265,8.57,1.05,-5.544,95.59086,-11.92,-10.48,69.18,0,108.9,13.86,-11.21,227.0
"2009-12-03 00:00:30",1469087,3.073,269.5,7.137,1.102,-6.509,95.58275,-11.94,-10.54,69.19,0,108.9,13.86,-11.23,231.5
"2009-12-03 00:01:00",1469088,3.301,269.3,5.95,1.084,-6.063,95.58617,-11.93,-10.53,69.29,0,108.9,13.86,-11.22,231.3
"2009-12-03 00:01:30",1469089,3.602,276.7,4.368,0.961,-5.793,95.59187,-11.92,-10.53,69.37,0,108.9,13.86,-11.21,238.7
"2009-12-03 00:02:00",1469090,3.383,275.1,5.362,1.12,-5.948,95.59458,-11.91,-10.53,69.51,0,108.9,13.86,-11.20,237.1
"2009-12-03 00:02:30",1469091,3.566,275.3,5.383,1.083,-5.849,95.59621,-11.91,-10.56,69.57,0,108.9,13.86,-11.20,237.3
"2009-12-03 00:03:00",1469092,3.114,275.2,7.242,1.171,-6.676,95.59477,-11.91,-10.57,69.68,0,108.9,13.86,-11.20,237.2
"2009-12-03 00:03:30",1469093,3.143,274.4,5.931,1.126,-6.758,95.58862,-11.93,-10.55,69.78,0,108.9,13.87,-11.22,236.4
"2009-12-03 00:04:00",1469094,3.304,275.3,5.067,1.1,-6.934,95.57632,-11.96,-10.65,69.79,0,108.9,13.87,-11.25,237.3
"2009-12-03 00:04:30",1469095,3.627,275.8,4.684,1.035,-6.377,95.5695,-11.97,-10.56,69.97,0,108.9,13.87,-11.27,237.8
"2009-12-03 00:05:00",1469096,3.104,275.4,4.693,1.099,-6.015,95.56892,-11.98,-10.59,70.04,0,108.9,13.87,-11.27,237.4
"2009-12-03 00:05:30",1469097,3.143,272.2,7.17,1.178,-6.414,95.56919,-11.98,-10.6,70.05,0,108.9,13.87,-11.27,234.2
"2009-12-03 00:06:00",1469098,2.959,274.3,7.782,1.171,-6.54,95.56919,-11.98,-10.62,70.07,0,108.9,13.88,-11.27,236.3
"2009-12-03 00:06:30",1469099,3.374,280.8,7.078,1.003,-6.475,95.56919,-11.98,-10.62,70.13,0,108.9,13.88,-11.27,242.8
"2009-12-03 00:07:00",1469100,2.55,281.3,7.009,1.122,-7.526,95.56919,-11.98,-10.68,70.11,0,108.9,13.88,-11.27,243.3
"2009-12-03 00:07:30",1469101,3.428,285.3,4.704,0.965,-5.739,95.56919,-11.98,-10.61,70.18,0,108.9,13.88,-11.27,247.3
"2009-12-03 00:08:00",1469102,3.245,285.7,6.058,1.097,-5.902,95.56919,-11.98,-10.62,70.22,0,108.9,13.88,-11.27,247.7
"2009-12-03 00:08:30",1469103,3.327,282.2,7.177,1.06,-5.964,95.56834,-11.98,-10.64,70.26,0,108.9,13.88,-11.27,244.2
"2009-12-03 00:09:00",1469104,2.972,275.9,4.284,1.047,-6.077,95.56664,-11.98,-10.64,70.33,0,108.9,13.88,-11.27,237.9
"2009-12-03 00:09:30",1469105,3.087,277.9,3.724,1.087,-6.357,95.55896,-12,-10.65,70.38,0,108.9,13.88,-11.29,239.9
"2009-12-03 00:10:00",1469106,3.377,275,6.391,1.035,-6.353,95.55241,-12.02,-10.64,70.42,0,108.9,13.88,-11.31,237.0
"2009-12-03 00:10:30",1469107,3.395,272.1,5.284,1.025,-5.773,95.54443,-12.04,-10.69,70.41,0,108.8,13.88,-11.33,234.1
"2009-12-03 00:11:00",1469108,3.351,269.4,5.581,1.072,-5.907,95.5452,-12.04,-10.69,70.44,0,108.8,13.89,-11.33,231.4
"2009-12-03 00:11:30",1469109,3.467,271.2,6.775,0.998,-5.793,95.54644,-12.03,-10.65,70.51,0,108.8,13.89,-11.32,233.2
"2009-12-03 00:12:00",1469110,3.478,274.1,6.046,1.033,-6.073,95.54245,-12.04,-10.7,70.46,0,108.8,13.89,-11.33,236.1
"2009-12-03 00:12:30",1469111,3.553,276.9,5.516,1.058,-6.473,95.54053,-12.05,-10.75,70.46,0,108.8,13.89,-11.34,238.9
"2009-12-03 00:13:00",1469112,3.159,271.9,5.892,1.105,-6.703,95.54215,-12.04,-10.61,70.6,0,108.9,13.89,-11.33,233.9
"2009-12-03 00:13:30",1469113,3.564,271.1,4.89,1.076,-6.049,95.54161,-12.05,-10.66,70.62,0,108.8,13.89,-11.34,233.1
"2009-12-03 00:14:00",1469114,3.357,268.4,5.575,1.094,-6.032,95.54568,-12.04,-10.73,70.6,0,108.9,13.89,-11.33,230.4
"2009-12-03 00:14:30",1469115,3.793,267.1,3.739,0.83,-5.195,95.54894,-12.03,-10.64,70.73,0,108.9,13.89,-11.32,229.1
"2009-12-03 00:15:00",1469116,3.394,266.9,5.742,1.05,-5.756,95.55329,-12.02,-10.7,70.67,0,108.8,13.89,-11.31,228.9
"2009-12-03 00:15:30",1469117,2.974,261,6.158,1.148,-6.981,95.5573,-12.01,-10.8,70.6,0,108.8,13.89,-11.30,223.0
"2009-12-03 00:16:00",1469118,3.613,262.8,5.435,0.81,-5.668,95.56087,-12,-10.68,70.7,0,108.8,13.9,-11.29,224.8
"2009-12-03 00:16:30",1469119,3.312,258,4.98,1.006,-5.911,95.56025,-12,-10.68,70.69,0,108.8,13.9,-11.29,220.0
"2009-12-03 00:17:00",1469120,3.175,258.3,6.651,1.014,-6.024,95.56078,-12,-10.69,70.67,0,108.8,13.89,-11.29,220.3
"2009-12-03 00:17:30",1469121,3.347,263.8,7.013,0.959,-5.097,95.55895,-12,-10.66,70.66,0,108.8,13.89,-11.29,225.8
"2009-12-03 00:18:00",1469122,2.197,250.8,4.078,0.97,-7.845,95.55215,-12.02,-10.74,70.54,0,108.8,13.89,-11.31,212.8
"2009-12-03 00:18:30",1469123,3.184,259.8,5.19,1.056,-6.046,95.54417,-12.04,-10.68,70.55,0,108.9,13.89,-11.33,221.8
"2009-12-03 00:19:00",1469124,3.629,258.9,4.099,0.772,-5.693,95.53903,-12.05,-10.74,70.47,0,108.8,13.89,-11.34,220.9
"2009-12-03 00:19:30",1469125,3.412,259.3,4.792,0.948,-5.515,95.53872,-12.05,-10.72,70.49,0,108.8,13.89,-11.34,221.3
"2009-12-03 00:20:00",1469126,3.333,256.2,5.686,1,-6.021,95.53474,-12.06,-10.72,70.46,0,108.8,13.89,-11.35,218.2
"2009-12-03 00:20:30",1469127,3.484,257.9,4.501,0.962,-5.81,95.53333,-12.07,-10.73,70.45,0,108.8,13.9,-11.36,219.9
"2009-12-03 00:21:00",1469128,2.526,254,6.042,1.06,-7.471,95.53358,-12.07,-10.82,70.32,0,108.8,13.9,-11.36,216.0
"2009-12-03 00:21:30",1469129,3.184,258.8,5.672,1.126,-6.404,95.53358,-12.07,-10.75,70.37,0,108.8,13.9,-11.36,220.8
"2009-12-03 00:22:00",1469130,3.136,259.6,5.314,1.111,-6.102,95.53358,-12.07,-10.67,70.44,0,108.9,13.9,-11.36,221.6
"2009-12-03 00:22:30",1469131,3.384,259.2,5.735,0.987,-5.919,95.53358,-12.07,-10.72,70.44,0,108.8,13.9,-11.36,221.2
"2009-12-03 00:23:00",1469132,3.407,259.2,4.92,1.027,-5.901,95.53358,-12.07,-10.7,70.45,0,108.8,13.9,-11.36,221.2
"2009-12-03 00:23:30",1469133,3.046,253.1,6.208,1.099,-6.376,95.53358,-12.07,-10.79,70.4,0,108.8,13.9,-11.36,215.1
"2009-12-03 00:24:00",1469134,2.78,253,10.94,1.174,-7.165,95.53358,-12.07,-10.79,70.45,0,108.8,13.91,-11.36,215.0
"2009-12-03 00:24:30",1469135,3.429,255.3,5.202,1.034,-5.922,95.53301,-12.07,-10.76,70.44,0,108.8,13.91,-11.36,217.3
"2009-12-03 00:25:00",1469136,3.457,259.1,6.481,1.018,-5.539,95.5313,-12.07,-10.71,70.51,0,108.8,13.91,-11.36,221.1
"2009-12-03 00:25:30",1469137,3.306,261.4,7.155,1.01,-5.609,95.53045,-12.07,-10.72,70.5,0,108.8,13.91,-11.36,223.4
"2009-12-03 00:26:00",1469138,3.392,255.6,6.471,1.048,-6.282,95.52961,-12.08,-10.77,70.5,0,108.9,13.91,-11.37,217.6
"2009-12-03 00:26:30",1469139,2.158,252,6.881,0.828,-7.903,95.52108,-12.1,-10.81,70.51,0,108.8,13.91,-11.39,214.0
"2009-12-03 00:27:00",1469140,2.961,252.4,6.632,1.082,-6.292,95.50999,-12.13,-10.74,70.64,0,108.8,13.91,-11.42,214.4
"2009-12-03 00:27:30",1469141,3.3,258.2,5.587,1.027,-5.817,95.50821,-12.13,-10.75,70.68,0,108.8,13.91,-11.42,220.2
"2009-12-03 00:28:00",1469142,3.728,258.1,4.554,0.655,-5.102,95.50764,-12.13,-10.72,70.74,0,108.8,13.91,-11.42,220.1
"2009-12-03 00:28:30",1469143,3.163,254.9,6.031,1.08,-6.362,95.50928,-12.13,-10.8,70.72,0,108.8,13.91,-11.42,216.9
"2009-12-03 00:29:00",1469144,3.179,259,6.217,1.064,-5.598,95.50979,-12.13,-10.78,70.8,0,108.8,13.91,-11.42,221.0
"2009-12-03 00:29:30",1469145,3.056,258,6.268,1.087,-6.622,95.50829,-12.13,-10.84,70.75,0,108.8,13.91,-11.42,220.0
"2009-12-03 00:30:00",1469146,3.423,257.9,5.475,0.989,-5.88,95.50877,-12.13,-10.75,70.89,0,108.8,13.91,-11.42,219.9
"2009-12-03 00:30:30",1469147,3.421,259.6,5.941,1.033,-5.82,95.50899,-12.13,-10.81,70.88,0,108.8,13.91,-11.42,221.6
"2009-12-03 00:31:00",1469148,3.426,259.6,5.614,1,-6.212,95.50899,-12.13,-10.76,70.98,0,108.8,13.91,-11.42,221.6
"2009-12-03 00:31:30",1469149,3.377,264,4.274,1.029,-5.664,95.51332,-12.12,-10.74,71.03,0,108.7,13.91,-11.41,226.0
"2009-12-03 00:32:00",1469150,3.244,256.3,7.289,1.118,-6.557,95.51523,-12.11,-10.88,70.94,0,108.8,13.91,-11.40,218.3
"2009-12-03 00:32:30",1469151,3.359,254.3,5.939,1.064,-6.213,95.51685,-12.11,-10.79,71.13,0,108.8,13.92,-11.40,216.3
"2009-12-03 00:33:00",1469152,3.502,260,6.262,1.003,-5.588,95.51767,-12.11,-10.77,71.19,0,108.8,13.92,-11.40,222.0
"2009-12-03 00:33:30",1469153,3.798,260.9,5.857,0.906,-5.679,95.5212,-12.1,-10.77,71.22,0,108.8,13.91,-11.39,222.9
"2009-12-03 00:34:00",1469154,3.733,259.9,5.78,0.994,-5.56,95.52309,-12.09,-10.72,71.32,0,108.8,13.91,-11.38,221.9
"2009-12-03 00:34:30",1469155,3.649,254.4,5.808,1.028,-6.175,95.525,-12.09,-10.84,71.27,0,108.8,13.91,-11.38,216.4
"2009-12-03 00:35:00",1469156,3.311,254.7,5.478,1.112,-6.311,95.52495,-12.09,-10.83,71.32,0,108.8,13.91,-11.38,216.7
"2009-12-03 00:35:30",1469157,3.776,258.3,5.166,0.986,-5.503,95.52406,-12.09,-10.78,71.4,0,108.8,13.91,-11.38,220.3
"2009-12-03 00:36:00",1469158,3.532,260.1,5.057,1.011,-5.826,95.52142,-12.1,-10.78,71.4,0,108.8,13.91,-11.39,222.1
"2009-12-03 00:36:30",1469159,3.59,258.1,5.702,1,-5.938,95.51969,-12.1,-10.78,71.47,0,108.8,13.91,-11.39,220.1
"2009-12-03 00:37:00",1469160,3.74,258.1,4.151,0.916,-5.82,95.51682,-12.11,-10.76,71.5,0,108.8,13.91,-11.40,220.1
"2009-12-03 00:37:30",1469161,3.315,256.6,5.32,1.067,-6.252,95.51901,-12.1,-10.84,71.39,0,108.8,13.91,-11.39,218.6
"2009-12-03 00:38:00",1469162,2.964,257.6,5.667,1.088,-6.687,95.51615,-12.11,-10.85,71.4,0,108.8,13.91,-11.40,219.6
"2009-12-03 00:38:30",1469163,2.995,259.3,6.188,1.119,-6.17,95.51501,-12.11,-10.8,71.47,0,108.8,13.92,-11.40,221.3
"2009-12-03 00:39:00",1469164,3.29,256.7,5.511,1.033,-5.829,95.51131,-12.12,-10.8,71.43,0,108.8,13.92,-11.41,218.7
"2009-12-03 00:39:30",1469165,3.317,254.9,5.669,1.114,-6.418,95.50961,-12.13,-10.81,71.44,0,108.8,13.93,-11.42,216.9
"2009-12-03 00:40:00",1469166,3.71,255,4.873,0.926,-5.763,95.50675,-12.13,-10.76,71.51,0,108.8,13.93,-11.43,217.0
"2009-12-03 00:40:30",1469167,3.633,255.2,6.009,1.015,-5.894,95.50534,-12.14,-10.8,71.45,0,108.8,13.93,-11.43,217.2
"2009-12-03 00:41:00",1469168,3.193,258.5,5.107,1.104,-6.31,95.50534,-12.14,-10.82,71.41,0,108.8,13.93,-11.43,220.5
"2009-12-03 00:41:30",1469169,3.506,259.1,5.226,1.06,-5.533,95.50334,-12.14,-10.74,71.46,0,108.8,13.93,-11.43,221.1
"2009-12-03 00:42:00",1469170,3.229,260.5,5.937,1.105,-6.351,95.50136,-12.15,-10.8,71.44,0,108.8,13.93,-11.44,222.5
"2009-12-03 00:42:30",1469171,3.753,262.6,5.065,1.011,-5.552,95.5005,-12.15,-10.79,71.41,0,108.8,13.93,-11.44,224.6
"2009-12-03 00:43:00",1469172,3.475,263.9,6.085,1.022,-5.678,95.50023,-12.15,-10.79,71.44,0,108.8,13.93,-11.44,225.9
"2009-12-03 00:43:30",1469173,3.846,264.8,4.851,0.91,-5.211,95.50079,-12.15,-10.79,71.45,0,108.8,13.93,-11.44,226.8
"2009-12-03 00:44:00",1469174,3.414,263.4,6.286,1.086,-5.565,95.50108,-12.15,-10.78,71.47,0,108.8,13.93,-11.44,225.4
"2009-12-03 00:44:30",1469175,3.702,262.4,5.838,0.946,-5.498,95.49966,-12.15,-10.78,71.46,0,108.8,13.93,-11.44,224.4
"2009-12-03 00:45:00",1469176,3.733,264.9,5.333,0.891,-5.106,95.50193,-12.15,-10.82,71.41,0,108.8,13.93,-11.44,226.9
"2009-12-03 00:45:30",1469177,3.256,261.5,5.011,1.122,-6.374,95.50334,-12.14,-10.78,71.42,0,108.8,13.93,-11.43,223.5
"2009-12-03 00:46:00",1469178,4.058,268.9,3.849,0.766,-5.318,95.50534,-12.14,-10.78,71.39,0,108.8,13.93,-11.43,230.9
"2009-12-03 00:46:30",1469179,3.753,265.8,5.025,0.988,-5.451,95.50562,-12.14,-10.83,71.34,0,108.8,13.93,-11.43,227.8
"2009-12-03 00:47:00",1469180,3.233,266,6.237,1.145,-5.936,95.50989,-12.13,-10.77,71.38,0,108.8,13.93,-11.42,228.0
"2009-12-03 00:47:30",1469181,4.019,271.7,4.671,0.786,-5.219,95.51557,-12.11,-10.76,71.41,0,108.8,13.93,-11.40,233.7
"2009-12-03 00:48:00",1469182,3.601,269.3,6.121,1.079,-6.451,95.52381,-12.09,-10.8,71.38,0,108.8,13.93,-11.38,231.3
"2009-12-03 00:48:30",1469183,3.765,271.6,5.806,1.085,-6.466,95.5295,-12.08,-10.78,71.41,0,108.8,13.93,-11.37,233.6
"2009-12-03 00:49:00",1469184,3.647,270.1,5.396,1.091,-6.67,95.53149,-12.07,-10.79,71.4,0,108.8,13.93,-11.36,232.1
"2009-12-03 00:49:30",1469185,3.951,272.4,4.637,1.017,-5.745,95.53206,-12.07,-10.73,71.44,0,108.8,13.94,-11.36,234.4
"2009-12-03 00:50:00",1469186,3.883,272.3,5.713,1.083,-6.118,95.53206,-12.07,-10.8,71.37,0,108.8,13.94,-11.36,234.3
"2009-12-03 00:50:30",1469187,4.1,271.1,4.02,0.829,-5.129,95.53206,-12.07,-10.69,71.48,0,108.8,13.93,-11.36,233.1
"2009-12-03 00:51:00",1469188,3.845,267.7,5.37,1.014,-5.926,95.53206,-12.07,-10.77,71.4,0,108.8,13.93,-11.36,229.7
"2009-12-03 00:51:30",1469189,3.464,264.1,6.488,1.111,-6.539,95.53291,-12.07,-10.81,71.32,0,108.8,13.93,-11.36,226.1
"2009-12-03 00:52:00",1469190,3.622,264.1,4.925,1.066,-5.847,95.53803,-12.05,-10.68,71.42,0,108.8,13.93,-11.35,226.1
"2009-12-03 00:52:30",1469191,3.599,262.2,7.151,0.95,-5.781,95.54029,-12.05,-10.73,71.27,0,108.8,13.93,-11.34,224.2
"2009-12-03 00:53:00",1469192,3.539,263.4,6.482,1.017,-5.483,95.53803,-12.05,-10.72,71.2,0,108.8,13.93,-11.35,225.4
"2009-12-03 00:53:30",1469193,3.654,266.9,4.733,0.928,-5.297,95.54285,-12.04,-10.74,71.11,0,108.9,13.93,-11.33,228.9
"2009-12-03 00:54:00",1469194,3.523,266.9,5.528,1.078,-5.727,95.54795,-12.03,-10.71,71.11,0,108.8,13.93,-11.32,228.9
"2009-12-03 00:54:30",1469195,2.796,258.8,6.502,1.113,-7.54,95.55561,-12.01,-10.83,70.95,0,108.8,13.93,-11.30,220.8
"2009-12-03 00:55:00",1469196,4.11,265.8,4.046,0.499,-4.68,95.5596,-12,-10.64,71.14,0,108.8,13.93,-11.29,227.8
"2009-12-03 00:55:30",1469197,3.347,263.9,6.392,1.077,-5.742,95.56242,-11.99,-10.75,71,0,108.8,13.94,-11.28,225.9
"2009-12-03 00:56:00",1469198,3.679,266.4,6.064,0.965,-5.111,95.56274,-11.99,-10.65,71.07,0,108.8,13.94,-11.28,228.4
"2009-12-03 00:56:30",1469199,3.136,264,5.622,1.127,-6.08,95.56693,-11.98,-10.7,71,0,108.8,13.94,-11.27,226.0
"2009-12-03 00:57:00",1469200,3.697,267.5,4.684,1.046,-5.8,95.56724,-11.98,-10.68,70.99,0,108.8,13.94,-11.27,229.5
"2009-12-03 00:57:30",1469201,2.899,263,6.7,1.079,-7.012,95.56699,-11.98,-10.7,70.98,0,108.8,13.94,-11.27,225.0
"2009-12-03 00:58:00",1469202,3.74,274,4.088,0.953,-5.456,95.56779,-11.98,-10.62,71.05,0,108.8,13.94,-11.27,236.0
"2009-12-03 00:58:30",1469203,3.764,277.5,6.406,0.993,-5.363,95.56725,-11.98,-10.66,71.01,0,108.8,13.94,-11.27,239.5
"2009-12-03 00:59:00",1469204,3.593,278,5.849,1.088,-5.703,95.56752,-11.98,-10.62,71.03,0,108.8,13.94,-11.27,240.0
"2009-12-03 00:59:30",1469205,3.293,273,6.891,1.098,-6.945,95.5667,-11.98,-10.76,70.87,0,108.8,13.94,-11.27,235.0
"2009-12-03 01:00:00",1469206,3.652,278.2,5.382,1.115,-6.77,95.5667,-11.98,-10.74,70.83,0,108.8,13.94,-11.27,240.2
"2009-12-03 01:00:30",1469207,3.097,276.8,7.421,1.035,-7.27,95.56834,-11.98,-10.71,70.82,0,108.8,13.94,-11.27,238.8
"2009-12-03 01:01:00",1469208,4.255,279.7,3.524,0.783,-5.183,95.56752,-11.98,-10.59,70.85,0,108.8,13.94,-11.27,241.7
"2009-12-03 01:01:30",1469209,3.797,281.4,6.791,1.031,-5.621,95.56834,-11.98,-10.64,70.81,0,108.8,13.94,-11.27,243.4
"2009-12-03 01:02:00",1469210,4.057,281.9,5.171,0.819,-5.124,95.57024,-11.97,-10.63,70.81,0,108.8,13.95,-11.26,243.9
"2009-12-03 01:02:30",1469211,3.256,276.5,6.792,1.049,-7.279,95.57133,-11.97,-10.66,70.73,0,108.8,13.94,-11.26,238.5
"2009-12-03 01:03:00",1469212,3.487,278.3,7.666,1.095,-6.731,95.57136,-11.97,-10.63,70.77,0,108.8,13.94,-11.26,240.3
"2009-12-03 01:03:30",1469213,3.899,282.4,7.157,1.033,-6.321,95.57578,-11.96,-10.62,70.8,0,108.8,13.95,-11.25,244.4
"2009-12-03 01:04:00",1469214,4.234,283.5,5.707,0.734,-5.182,95.57917,-11.95,-10.64,70.78,0,108.8,13.95,-11.24,245.5
"2009-12-03 01:04:30",1469215,3.915,281,5.93,0.922,-5.681,95.58085,-11.95,-10.57,70.85,0,108.8,13.95,-11.24,243.0
"2009-12-03 01:05:00",1469216,3.931,281,5.83,1.013,-6.052,95.58275,-11.94,-10.56,70.83,0,108.8,13.95,-11.23,243.0
"2009-12-03 01:05:30",1469217,4.129,283.3,4.502,0.816,-5.792,95.58556,-11.93,-10.67,70.7,0,108.8,13.95,-11.22,245.3
"2009-12-03 01:06:00",1469218,2.641,277.4,5.076,0.852,-7.874,95.59706,-11.9,-10.59,70.75,0,108.8,13.95,-11.19,239.4
"2009-12-03 01:06:30",1469219,3.778,287.2,6.052,1.04,-6.247,95.60841,-11.88,-10.64,70.63,0,108.8,13.94,-11.17,249.2
"2009-12-03 01:07:00",1469220,3.198,285,5.535,1.168,-6.901,95.61349,-11.86,-10.55,70.66,0,108.8,13.94,-11.15,247.0
"2009-12-03 01:07:30",1469221,4.215,290.5,3.716,0.541,-4.732,95.61702,-11.85,-10.54,70.61,0,108.8,13.94,-11.14,252.5
"2009-12-03 01:08:00",1469222,3.961,288.1,5.711,0.969,-5.51,95.61462,-11.86,-10.59,70.46,0,108.8,13.94,-11.15,250.1
"2009-12-03 01:08:30",1469223,3.862,290.2,4.618,1.026,-6.09,95.61874,-11.85,-10.61,70.36,0,108.8,13.94,-11.14,252.2
"2009-12-03 01:09:00",1469224,2.767,284.9,5.448,0.926,-8.26,95.62038,-11.85,-10.63,70.26,0,108.8,13.94,-11.14,246.9
"2009-12-03 01:09:30",1469225,4.032,286.6,6.013,0.976,-5.908,95.62065,-11.84,-10.61,70.16,0,108.8,13.94,-11.13,248.6
"2009-12-03 01:10:00",1469226,3.887,284.7,5.423,1.024,-5.611,95.62093,-11.84,-10.52,70.22,0,108.8,13.94,-11.13,246.7
"2009-12-03 01:10:30",1469227,4.285,289.3,3.166,0.785,-4.823,95.62202,-11.84,-10.5,70.23,0,108.8,13.94,-11.13,251.3
"2009-12-03 01:11:00",1469228,3.805,288.5,5.273,1.023,-5.751,95.62259,-11.84,-10.56,70.16,0,108.8,13.94,-11.13,250.5
"2009-12-03 01:11:30",1469229,3.612,291.6,5.024,1.06,-6.044,95.62767,-11.83,-10.56,70.16,0,108.8,13.94,-11.12,253.6
"2009-12-03 01:12:00",1469230,2.508,287.4,4.09,0.833,-8.73,95.62968,-11.82,-10.64,70.02,0,108.8,13.95,-11.11,249.4
"2009-12-03 01:12:30",1469231,3.362,293.6,5.937,1.133,-6.645,95.62829,-11.83,-10.52,70.08,0,108.8,13.95,-11.12,255.6
"2009-12-03 01:13:00",1469232,4.026,295,4.221,0.804,-5.3,95.62886,-11.82,-10.47,70.08,0,108.8,13.95,-11.11,257.0
"2009-12-03 01:13:30",1469233,3.794,299.9,4.547,0.932,-5.479,95.63703,-11.8,-10.5,70,0,108.7,13.95,-11.09,261.9
"2009-12-03 01:14:00",1469234,3.953,297,5.427,0.852,-5.571,95.64272,-11.79,-10.48,69.93,0,108.8,13.96,-11.08,259.0
"2009-12-03 01:14:30",1469235,3.817,298.9,6.257,0.969,-6.233,95.65123,-11.77,-10.49,69.89,0,108.8,13.96,-11.06,260.9
"2009-12-03 01:15:00",1469236,3.29,299,5.863,1.096,-7.134,95.65463,-11.76,-10.55,69.74,0,108.8,13.95,-11.05,261.0
"2009-12-03 01:15:30",1469237,2.586,292.6,4.061,0.99,-7.883,95.65441,-11.76,-10.55,69.67,0,108.8,13.96,-11.05,254.6
"2009-12-03 01:16:00",1469238,3.396,298.6,6.08,1.134,-6.294,95.65611,-11.75,-10.52,69.62,0,108.8,13.96,-11.04,260.6
"2009-12-03 01:16:30",1469239,3.795,303.2,4.475,0.829,-5.602,95.65611,-11.75,-10.5,69.59,0,108.8,13.96,-11.04,265.2
"2009-12-03 01:17:00",1469240,3.773,298.3,5.274,0.864,-6.003,95.65694,-11.75,-10.45,69.6,0,108.8,13.96,-11.04,260.3
"2009-12-03 01:17:30",1469241,3.587,300,4.13,0.983,-6.19,95.65694,-11.75,-10.52,69.48,0,108.8,13.96,-11.04,262.0
"2009-12-03 01:18:00",1469242,3.618,296.6,6.417,0.994,-5.934,95.65585,-11.76,-10.47,69.5,0,108.8,13.96,-11.05,258.6
"2009-12-03 01:18:30",1469243,3.777,296.5,6.223,1.029,-6.06,95.65722,-11.75,-10.48,69.46,0,108.8,13.96,-11.04,258.5
"2009-12-03 01:19:00",1469244,3.635,298.2,7.823,0.944,-5.682,95.65531,-11.76,-10.41,69.55,0,108.8,13.96,-11.05,260.2
"2009-12-03 01:19:30",1469245,3.534,301.5,6.087,0.99,-6.225,95.65341,-11.76,-10.44,69.49,0,108.8,13.96,-11.05,263.5
"2009-12-03 01:20:00",1469246,3.727,309.3,4.444,0.816,-5.893,95.65368,-11.76,-10.5,69.42,0,108.8,13.96,-11.05,271.3
"2009-12-03 01:20:30",1469247,2.832,307.7,5.171,1.077,-7.368,95.65395,-11.76,-10.52,69.36,0,108.8,13.96,-11.05,269.7
"2009-12-03 01:21:00",1469248,3.153,311.4,5.843,1.084,-6.96,95.65422,-11.76,-10.49,69.27,0,108.8,13.96,-11.05,273.4
"2009-12-03 01:21:30",1469249,4.035,316.5,3.811,0.461,-4.857,95.65397,-11.76,-10.36,69.24,0,108.8,13.96,-11.05,278.5
"2009-12-03 01:22:00",1469250,3.681,314.6,5.615,0.914,-5.511,95.65209,-11.77,-10.42,69.05,0,108.8,13.96,-11.05,276.6
"2009-12-03 01:22:30",1469251,3.577,315.6,4.904,0.97,-5.83,95.65968,-11.75,-10.44,68.95,0,108.8,13.96,-11.04,277.6
"2009-12-03 01:23:00",1469252,3.184,310.1,6.588,1.134,-6.984,95.66636,-11.73,-10.54,68.76,0,108.8,13.96,-11.02,272.1
"2009-12-03 01:23:30",1469253,3.062,309.8,4.792,1.122,-7.248,95.67072,-11.72,-10.47,68.79,0,108.8,13.95,-11.01,271.8
"2009-12-03 01:24:00",1469254,3.314,312.4,5.914,1.138,-6.165,95.67582,-11.7,-10.4,68.82,0,108.8,13.95,-10.99,274.4
"2009-12-03 01:24:30",1469255,4.101,320.2,3.495,0.603,-5.058,95.68066,-11.69,-10.34,68.88,0,108.8,13.95,-10.98,282.2
"2009-12-03 01:25:00",1469256,3.68,319.3,5.315,1.037,-5.759,95.67963,-11.7,-10.41,68.77,0,108.8,13.95,-10.98,281.3
"2009-12-03 01:25:30",1469257,3.526,319.9,5.634,1.068,-5.766,95.68099,-11.69,-10.34,68.72,0,108.8,13.95,-10.98,281.9
"2009-12-03 01:26:00",1469258,3.347,321.3,5.318,1.115,-6.62,95.67746,-11.7,-10.49,68.44,0,108.8,13.95,-10.99,283.3
"2009-12-03 01:26:30",1469259,3.247,321.8,5.869,1.048,-7.128,95.67854,-11.7,-10.4,68.47,0,108.8,13.95,-10.99,283.8
"2009-12-03 01:27:00",1469260,3.894,325.2,3.629,0.856,-5.295,95.67882,-11.7,-10.35,68.44,0,108.8,13.95,-10.99,287.2
"2009-12-03 01:27:30",1469261,3.977,323.5,3.481,0.782,-5.093,95.67637,-11.7,-10.3,68.45,0,108.8,13.95,-10.99,285.5
"2009-12-03 01:28:00",1469262,3.607,320.4,5.405,1.009,-5.783,95.67721,-11.7,-10.39,68.3,0,108.8,13.95,-10.99,282.4
"2009-12-03 01:28:30",1469263,3.307,318.6,6.075,1.103,-6.21,95.67722,-11.7,-10.36,68.25,0,108.7,13.95,-10.99,280.6
"2009-12-03 01:29:00",1469264,3.455,319.3,5.97,1.073,-6.62,95.67867,-11.7,-10.43,68.06,0,108.8,13.96,-10.99,281.3
"2009-12-03 01:29:30",1469265,3.556,318.9,4.912,0.977,-6.22,95.67875,-11.7,-10.38,68.07,0,108.8,13.96,-10.99,280.9
"2009-12-03 01:30:00",1469266,3.406,317.1,6.083,1.078,-6.36,95.68473,-11.68,-10.32,68.09,0,108.8,13.96,-10.97,279.1
"2009-12-03 01:30:30",1469267,3.744,320.3,4.466,0.866,-5.768,95.69693,-11.65,-10.32,68.06,0,108.8,13.96,-10.94,282.3
"2009-12-03 01:31:00",1469268,3.258,317.4,6.033,1.117,-6.188,95.70097,-11.64,-10.32,68.04,0,108.8,13.96,-10.93,279.4
"2009-12-03 01:31:30",1469269,3.242,313,6.106,1.099,-6.866,95.70217,-11.64,-10.34,68.03,0,108.8,13.96,-10.93,275.0
"2009-12-03 01:32:00",1469270,3.884,316,4.868,0.75,-5.717,95.70421,-11.63,-10.32,67.99,0,108.8,13.96,-10.92,278.0
"2009-12-03 01:32:30",1469271,3.307,314.6,6.27,1.091,-6.922,95.70313,-11.64,-10.31,68.03,0,108.8,13.96,-10.92,276.6
"2009-12-03 01:33:00",1469272,3.717,315.6,5.648,0.927,-5.856,95.7034,-11.63,-10.28,68.06,0,108.8,13.96,-10.92,277.6
"2009-12-03 01:33:30",1469273,3.873,314.2,3.994,0.872,-5.542,95.70422,-11.63,-10.22,68.12,0,108.8,13.96,-10.92,276.2
"2009-12-03 01:34:00",1469274,3.428,313.7,4.818,1.102,-6.54,95.70531,-11.63,-10.31,68.04,0,108.8,13.96,-10.92,275.7
"2009-12-03 01:34:30",1469275,3.54,314.7,5.589,1.076,-6.14,95.70369,-11.63,-10.27,68.11,0,108.8,13.96,-10.92,276.7
"2009-12-03 01:35:00",1469276,3.477,315.5,5.326,1.088,-6.76,95.7037,-11.63,-10.36,68.02,0,108.8,13.96,-10.92,277.5
"2009-12-03 01:35:30",1469277,4.168,319.6,4.175,0.714,-5.533,95.71018,-11.62,-10.27,68.11,0,108.8,13.96,-10.91,281.6
"2009-12-03 01:36:00",1469278,3.754,316.7,6.504,1.044,-6.169,95.70907,-11.62,-10.28,68.13,0,108.8,13.96,-10.91,278.7
"2009-12-03 01:36:30",1469279,3.766,316.4,4.657,1.027,-5.537,95.71281,-11.61,-10.24,68.19,0,108.8,13.96,-10.90,278.4
"2009-12-03 01:37:00",1469280,3.412,312.6,5.247,1.063,-6.371,95.72813,-11.57,-10.25,68.14,0,108.8,13.96,-10.86,274.6
"2009-12-03 01:37:30",1469281,3.651,311,6.379,0.95,-5.831,95.73268,-11.56,-10.25,68.16,0,108.8,13.96,-10.85,273.0
"2009-12-03 01:38:00",1469282,2.895,307.5,5.25,1.017,-7.278,95.73717,-11.55,-10.25,68.28,0,108.9,13.96,-10.84,269.5
"2009-12-03 01:38:30",1469283,3.498,310.9,4.724,1.027,-5.832,95.73667,-11.55,-10.17,68.47,0,108.8,13.96,-10.84,272.9
"2009-12-03 01:39:00",1469284,3.597,310.4,6.598,0.951,-5.918,95.73833,-11.55,-10.22,68.44,0,108.8,13.96,-10.83,272.4
"2009-12-03 01:39:30",1469285,3.8,314.7,4.56,0.882,-5.914,95.73779,-11.55,-10.17,68.5,0,108.7,13.96,-10.84,276.7
"2009-12-03 01:40:00",1469286,2.864,306.7,5.286,1.117,-7.115,95.73724,-11.55,-10.24,68.38,0,108.8,13.96,-10.84,268.7
"2009-12-03 01:40:30",1469287,3.701,307,5.005,1.016,-5.962,95.73806,-11.55,-10.24,68.34,0,108.8,13.95,-10.84,269.0
"2009-12-03 01:41:00",1469288,3.746,308.7,5.587,0.997,-5.941,95.73724,-11.55,-10.15,68.38,0,108.8,13.95,-10.84,270.7
"2009-12-03 01:41:30",1469289,4.097,311.5,3.256,0.698,-5.523,95.73866,-11.55,-10.13,68.4,0,108.8,13.95,-10.83,273.5
"2009-12-03 01:42:00",1469290,3.637,310.4,4.804,1.064,-5.99,95.74179,-11.54,-10.17,68.36,0,108.8,13.95,-10.83,272.4
"2009-12-03 01:42:30",1469291,4.091,313.1,5.447,0.911,-5.704,95.7457,-11.53,-10.13,68.36,0,108.8,13.95,-10.82,275.1
"2009-12-03 01:43:00",1469292,3.497,311.1,6.422,1.167,-5.868,95.7466,-11.52,-10.14,68.31,0,108.8,13.95,-10.81,273.1